Theta_e
296 289 284 288 289 289 288 285 284 288 295 294 295 296 297 300 301 301 304 307 312 315 316 316 316 315 312 310 307 305 304 304 304 303 302 301 301 301 300 301 301 301 301 300
291 286 292 295 294 291 288 284 285 289 293 294 294 295 298 297 298 301 304 307 309 311 313 313 313 312 312 310 307 305 305 304 305 304 303 303 302 302 301 301 301 301 301 300
289 293 297 294 291 288 286 285 285 286 290 291 291 291 294 297 294 297 303 307 308 312 314 313 311 309 310 309 306 306 306 305 305 304 305 304 303 302 300 299 299 300 300 300
290 295 293 291 289 288 283 290 289 288 286 282 288 281 285 291 293 294 295 298 307 309 313 313 310 309 310 308 306 306 305 305 305 305 304 303 301 300 300 300 299 298 299 299
288 290 290 289 289 290 287 291 289 288 284 282 281 280 284 287 291 293 293 295 304 308 312 311 311 310 309 306 305 305 305 305 304 304 303 301 300 300 299 299 298 297 298 298
290 294 292 291 292 291 292 288 287 286 283 276 280 280 282 284 290 293 295 294 297 303 307 307 308 308 306 304 304 304 304 303 304 303 303 302 299 298 297 296 296 296 297 297
287 289 291 293 289 290 289 283 275 275 274 276 282 278 284 288 291 293 294 294 294 300 302 305 306 305 303 302 302 302 302 302 302 301 300 299 298 298 297 296 296 296 296 296
280 278 288 292 288 286 285 283 277 274 274 276 281 278 284 290 292 293 293 293 297 299 302 304 305 303 302 301 301 302 301 300 300 299 298 298 298 297 297 297 296 296 296 296
280 280 290 291 291 289 285 281 285 279 277 276 278 281 287 289 291 292 292 295 295 298 300 301 302 303 302 301 301 301 300 300 299 299 298 297 297 297 296 296 296 296 296 298
284 279 287 290 290 289 285 286 280 278 275 274 275 277 280 284 288 291 291 292 295 297 298 299 300 301 302 302 301 301 300 299 299 298 297 297 296 296 296 295 295 295 295 295
284 282 281 286 285 284 283 281 281 281 279 275 273 277 285 285 289 290 291 293 294 295 296 297 298 299 300 300 299 299 299 298 298 297 296 295 295 294 293 291 291 291 291 291
284 282 278 282 285 287 285 283 282 278 277 277 275 277 286 287 289 292 291 293 292 293 293 293 294 296 296 297 297 296 296 296 295 295 294 292 291 291 290 290 289 288 286 286
285 280 275 279 282 283 282 284 284 282 280 277 276 279 287 284 288 291 291 291 291 290 290 290 291 292 292 293 293 293 293 292 292 291 290 288 286 285 284 284 284 284 284 284
290 281 279 276 279 281 280 281 283 282 275 277 278 279 281 285 289 289 290 289 289 289 289 289 289 289 290 290 290 290 289 288 286 286 285 284 284 284 283 284 284 284 284 284
287 280 278 280 281 281 281 282 282 279 282 280 281 281 282 284 286 289 289 288 288 288 288 289 288 287 287 287 285 285 284 285 285 284 284 283 283 284 284 284 284 285 285 286
286 281 280 278 281 279 279 280 281 282 283 281 282 282 286 285 287 288 288 289 289 288 288 288 288 286 284 282 282 283 283 284 284 284 283 284 284 284 284 285 286 285 285 284
283 281 280 277 280 281 279 282 281 280 282 284 280 285 284 284 288 290 289 290 289 288 288 288 286 284 281 282 283 282 282 283 283 283 284 285 285 285 285 284 283 282 281 280
282 281 280 277 280 274 283 287 286 283 284 284 284 285 283 285 286 289 290 289 288 289 289 287 284 282 282 282 282 282 283 283 284 285 285 285 284 283 283 282 281 280 280 279
283 281 278 277 277 282 285 285 284 283 283 285 284 285 285 286 286 286 290 290 290 290 288 285 284 282 282 282 283 284 284 285 285 284 283 282 282 281 281 280 279 279 279 278
284 282 279 278 276 276 284 286 287 287 280 286 285 285 286 286 281 284 289 290 288 287 286 284 283 284 283 282 283 283 282 282 283 282 282 282 282 280 280 279 278 279 278 279
279 278 277 276 276 280 286 286 287 279 282 288 288 287 286 285 285 287 288 287 288 287 284 284 284 283 282 282 282 282 282 282 282 282 282 281 280 279 279 278 278 278 278 278
280 277 276 276 275 274 287 285 283 286 287 287 287 287 287 286 287 287 287 286 285 284 284 283 282 281 281 282 283 282 280 281 281 281 280 279 279 280 280 278 278 278 277 276
280 284 281 282 281 287 286 288 288 289 288 288 288 288 288 287 287 287 285 284 284 283 282 283 282 282 282 283 282 279 280 281 280 279 278 278 278 278 279 278 278 277 276 275
283 286 284 285 288 288 288 287 289 290 289 290 289 289 288 287 287 285 284 283 282 282 282 283 282 282 280 280 280 280 280 280 279 278 277 278 277 279 277 278 278 277 275 275
285 286 285 284 287 288 288 288 289 290 290 290 290 289 288 288 286 285 283 282 282 282 282 283 282 280 279 279 279 279 280 279 279 278 278 278 278 277 277 277 276 277 277 278
286 286 284 284 289 288 287 290 290 290 290 290 289 288 288 289 286 285 284 283 283 281 282 281 280 280 279 279 279 279 279 279 278 278 278 277 277 276 276 276 276 281 283 284
Wind_Speed
3 6 2 5 3 2 4 3 1 4 4 5 10 8 7 8 7 8 8 8 11 11 7 11 12 12 11 10 11 10 9 7 6 3 3 2 3 2 2 2 4 4 4 5
5 1 5 4 4 4 4 2 5 5 5 7 4 12 5 7 6 10 13 10 10 7 8 8 9 10 12 13 11 10 10 8 5 4 2 3 3 1 2 2 3 3 4 4
1 5 5 3 3 1 1 4 4 4 2 1 5 6 5 7 4 4 7 9 7 13 18 14 13 11 10 12 12 11 10 8 6 6 4 3 4 3 2 1 1 1 4 4
4 5 4 2 1 0 0 4 4 4 5 5 4 5 6 6 10 8 11 9 13 13 11 13 14 12 14 11 7 8 8 8 6 7 4 6 4 4 3 3 2 2 3 3
6 4 4 2 2 1 5 3 4 2 3 3 0 3 8 2 9 10 11 13 12 13 12 13 16 15 10 10 9 7 8 7 6 6 5 5 3 2 2 2 5 2 1 2
6 1 2 3 3 3 3 2 6 5 3 3 3 6 7 5 9 7 6 10 11 8 8 7 9 12 8 7 7 7 8 7 7 6 6 7 6 5 4 3 3 2 1 0
5 3 3 1 3 2 2 6 3 5 5 6 2 3 10 3 3 5 9 8 7 8 10 12 13 11 9 9 8 7 8 7 6 6 5 5 6 6 6 4 3 3 1 0
2 8 3 4 2 2 1 5 6 5 4 5 1 6 9 1 3 4 3 5 8 8 8 10 11 9 9 9 8 8 8 7 6 6 5 5 6 4 3 3 3 3 2 2
2 4 2 1 3 1 1 0 2 4 2 2 4 8 7 1 2 5 6 6 7 7 8 9 8 8 8 7 8 8 7 6 6 6 5 5 5 6 5 5 4 3 3 3
2 4 2 2 1 2 2 2 2 3 2 4 5 5 8 6 7 3 3 4 4 6 7 7 6 7 5 6 6 6 6 7 6 6 5 5 5 6 6 5 6 6 5 4
1 1 5 2 5 5 1 2 2 2 5 3 3 8 6 5 8 9 7 6 6 6 6 6 6 5 6 5 6 6 7 7 6 6 6 7 6 6 7 6 6 6 5 5
2 3 4 9 3 3 4 3 4 5 4 3 3 9 2 3 6 8 8 6 5 7 7 7 6 7 6 7 6 7 6 7 6 7 7 7 7 7 7 6 6 5 6 6
2 2 5 8 4 2 4 5 5 2 2 6 5 8 2 2 4 5 10 8 8 8 7 6 6 6 7 6 6 7 6 7 7 8 9 7 7 7 6 6 6 6 5 5
1 1 6 6 5 3 4 3 5 6 3 2 8 6 4 5 7 6 6 7 8 8 8 7 7 6 6 6 7 8 7 8 7 8 7 7 6 6 6 5 5 5 4 5
2 4 4 7 10 6 8 10 7 8 9 10 7 10 7 9 10 9 8 8 9 9 8 7 7 6 6 7 7 8 7 7 7 8 7 6 6 5 5 5 5 5 5 5
1 4 2 6 8 5 6 11 10 10 6 9 7 14 6 5 6 7 10 12 10 9 8 8 9 8 8 8 7 7 7 7 7 7 6 5 6 5 5 5 5 5 5 5
3 2 2 6 3 7 8 7 7 5 5 8 10 12 4 4 8 14 13 12 11 10 11 10 10 10 9 8 8 8 7 6 7 7 6 6 5 5 5 4 5 5 5 4
3 1 2 5 5 3 7 3 5 8 7 8 7 5 4 2 1 5 6 11 10 11 12 10 10 9 7 6 7 7 6 6 6 6 5 5 4 4 4 4 4 4 2 2
5 4 3 2 2 9 3 1 2 1 5 0 5 4 2 3 3 2 6 7 11 11 11 11 10 8 7 8 7 7 6 6 6 5 4 4 4 4 4 4 4 3 2 3
4 2 3 0 2 5 2 2 2 2 5 3 2 5 6 3 2 5 6 8 8 10 12 12 10 10 9 6 7 7 6 6 5 4 4 3 3 2 3 4 4 2 2 4
3 1 5 4 4 9 7 3 1 2 3 0 2 7 8 5 5 2 7 5 11 12 13 12 11 11 8 7 7 7 6 5 4 4 3 2 1 2 3 4 2 3 4 5
10 9 5 3 3 9 7 2 5 6 3 2 1 3 5 3 4 5 8 11 13 14 13 11 11 9 6 7 7 6 6 4 4 3 2 3 3 3 3 3 4 4 5 5
3 9 8 11 10 6 7 8 5 5 5 5 5 5 8 8 5 7 8 10 11 13 11 8 11 9 6 6 6 7 5 5 4 2 1 1 3 4 4 3 5 4 4 4
4 4 5 3 7 11 8 5 5 7 6 5 5 6 8 9 8 7 7 9 10 8 9 7 9 8 6 5 5 5 6 5 4 2 1 3 3 5 4 3 3 3 4 4
7 7 7 8 6 5 6 8 8 7 5 5 6 7 10 11 8 10 9 9 9 9 7 7 8 7 6 6 5 4 4 3 1 1 2 3 3 4 4 4 4 3 5 5
7 11 10 16 9 8 6 7 8 9 9 10 9 7 6 10 13 10 10 9 10 9 8 7 7 7 5 5 4 3 2 2 1 2 3 3 3 3 3 4 4 8 13 13
Wind_Direction
328 56 199 234 214 228 295 323 329 273 205 146 199 229 220 199 181 180 208 202 201 195 179 162 167 161 158 159 156 157 154 159 141 130 126 114 139 129 86 108 122 105 92 84
18 285 245 260 283 273 251 271 283 275 230 178 183 230 224 207 202 203 189 211 211 178 177 152 149 160 167 163 169 163 164 160 158 136 147 142 144 160 145 131 98 105 94 89
209 277 323 165 282 297 218 171 235 224 36 125 115 294 210 248 236 187 209 207 221 218 186 170 164 159 160 167 166 174 163 158 155 147 116 84 77 60 67 81 99 116 110 99
292 324 333 277 157 3 257 266 255 225 133 197 139 248 256 209 228 203 214 206 213 213 231 172 152 151 164 169 165 162 148 153 157 155 139 147 150 160 203 172 158 138 127 116
262 320 345 300 245 209 221 282 285 195 133 83 302 86 267 162 236 216 224 216 213 201 192 183 163 155 154 150 159 154 143 146 147 158 160 153 150 160 139 121 135 140 144 112
245 255 206 252 290 242 306 338 32 52 74 38 246 132 276 206 219 233 221 212 205 178 165 143 110 120 124 125 136 150 143 149 151 158 157 156 158 152 130 129 152 163 117 75
327 284 280 215 304 323 89 59 4 4 8 215 245 55 243 246 309 256 261 228 165 155 147 141 131 134 136 147 145 148 140 146 154 153 144 153 159 157 168 164 157 157 146 162
89 334 332 356 259 217 323 141 151 190 191 242 336 237 251 334 352 321 352 132 123 123 128 132 136 137 141 142 147 142 145 141 151 144 134 134 139 136 127 135 136 142 141 157
344 276 276 226 324 357 293 253 186 107 357 41 230 285 305 196 37 40 48 81 100 107 118 125 117 128 130 140 156 150 147 137 145 143 132 122 110 115 119 106 101 100 94 111
268 306 235 285 4 263 265 160 53 8 196 251 285 276 237 227 219 189 117 104 95 96 106 114 122 132 140 149 141 139 139 144 154 140 129 118 116 104 99 90 83 79 66 66
192 149 288 352 194 192 355 238 148 143 156 197 288 265 214 218 210 189 189 171 158 138 132 132 134 142 140 127 129 132 135 134 130 121 114 106 95 92 88 86 85 86 77 65
333 172 261 233 281 202 181 220 177 131 236 220 167 277 335 308 208 162 171 153 136 132 135 134 135 127 121 123 123 126 124 116 115 107 98 95 95 90 87 86 83 73 67 52
340 300 332 339 359 330 238 208 172 127 81 215 161 260 357 24 129 173 156 157 151 143 131 121 114 122 127 123 120 115 107 102 101 104 103 90 91 92 89 81 71 63 55 39
100 199 194 214 231 210 273 261 234 152 134 234 228 278 273 243 202 183 166 157 155 153 146 139 131 130 121 109 105 102 93 102 102 99 99 102 99 97 90 79 62 49 35 23
171 248 204 250 253 243 246 244 220 202 224 197 246 225 245 223 207 190 167 161 156 160 153 144 129 117 108 104 98 96 98 103 112 105 101 106 103 90 75 58 44 34 31 20
190 274 304 284 274 230 258 249 233 229 229 258 277 277 240 305 122 161 183 171 169 161 150 141 134 130 125 121 119 118 120 119 110 107 110 107 91 78 61 42 32 29 20 10
190 230 324 261 334 322 289 233 215 212 209 202 228 246 207 211 207 189 178 179 169 163 156 148 147 145 144 144 139 134 135 124 112 115 114 99 82 63 46 30 21 10 355 351
181 170 214 275 327 242 243 190 191 202 246 222 270 264 216 211 130 127 149 166 163 158 156 154 150 146 146 140 132 126 127 127 122 112 98 81 70 55 27 14 358 334 299 312
188 140 273 269 266 296 284 221 154 136 282 306 251 185 141 133 71 32 174 168 167 162 157 154 151 144 138 141 136 126 125 119 111 108 97 77 60 29 1 334 317 295 281 305
70 77 155 350 242 262 265 199 164 195 289 325 271 176 160 150 155 246 176 144 134 135 141 137 133 131 130 136 131 121 127 122 116 106 91 64 39 360 318 315 326 290 294 280
144 154 206 226 259 280 256 234 206 162 235 315 159 189 174 195 205 185 121 91 132 135 129 128 135 140 141 138 128 129 131 129 131 104 88 67 29 340 316 318 287 283 301 309
171 164 199 137 208 278 173 93 186 207 189 208 203 203 173 135 108 101 107 120 127 128 133 136 131 132 136 134 124 128 133 139 110 108 79 19 357 328 319 322 319 322 323 318
229 193 187 183 211 230 195 198 211 186 173 196 182 183 160 147 153 140 130 127 133 137 137 134 134 132 128 125 128 138 157 148 133 104 53 316 339 336 337 334 319 318 313 304
258 182 212 223 215 237 224 235 220 205 212 186 183 163 156 153 150 134 131 131 127 131 134 130 129 130 124 131 127 136 149 151 153 158 18 352 342 313 323 304 288 286 288 288
200 155 217 258 280 303 270 226 220 209 199 173 167 168 165 154 154 148 144 140 139 138 128 137 139 134 141 140 134 142 149 144 105 19 327 308 289 285 284 275 268 268 258 262
182 213 226 251 247 226 226 217 188 182 198 188 165 154 168 165 159 151 149 147 147 143 131 125 129 133 145 140 134 125 126 137 168 265 264 263 269 274 274 273 277 288 303 306